Mineola, TX

8:06 PM CST on November 13, 2019 (GMT -0600)
Mineola

Weather History for KJDD - October, 2019

Change the Weather History Date:

Sunday, October 13, 2019

  Actual Average (WUND) Record (WUND)
Temperature  
Mean Temperature 58 °F -  
Max Temperature 71 °F - - (-1)
Min Temperature 44 °F - - (-1)
Degree Days  
Heating Degree Days 8    
Growing Degree Days 8 (Base 50)    
Moisture  
Dew Point 48 °F    
Average Humidity 74    
Maximum Humidity 100    
Minimum Humidity 41    
Precipitation  
Precipitation 0.00 in - - ()
Sea Level Pressure  
Sea Level Pressure 30.04 in    
Wind  
Wind Speed 1 mph ()    
Max Wind Speed 7 mph    
Max Gust Speed -    
Visibility 10.0 miles    
Events      
Averages and records for this station are not official NWS values.
T = Trace of Precipitation, MM = Missing Value Source: Averaged Metar Reports

Daily Weather History Graph

Daily Weather History Graph

Search for Another Location

Airport or City:

Astronomy

Oct. 13, 2019 Rise Set
Actual Time 7:24 AM CDT 6:51 PM CDT
Civil Twilight 6:59 AM CDT 7:16 PM CDT
Nautical Twilight 6:31 AM CDT 7:44 PM CDT
Astronomical Twilight 6:02 AM CDT 8:13 PM CDT
Moon 7:11 PM CDT (10/13) 7:04 AM CDT (10/13)
Length of Visible Light 12h 16m
Length of Day
11h 27m
Full, 100% of the Moon is Illuminated
Oct 13
Full
Oct 13
Full
Oct 21
Last Quarter
Oct 27
New
Nov 4
First Quarter

Hourly Weather History & Observations

Time (CDT) Temp. Dew Point Humidity Pressure Visibility Wind Dir Wind Speed Gust Speed Precip Events Conditions
12:15 AM 44.6 °F 42.8 °F 93% 30.05 in 10.0 mi Calm Calm - N/A   Clear
12:35 AM 44.6 °F 42.8 °F 93% 30.05 in 10.0 mi Calm Calm - N/A   Clear
12:55 AM 44.6 °F 42.8 °F 93% 30.05 in 10.0 mi Calm Calm - N/A   Clear
1:15 AM 44.6 °F 44.6 °F 100% 30.06 in 10.0 mi Calm Calm - N/A   Clear
1:35 AM 44.6 °F 44.6 °F 100% 30.06 in 10.0 mi Calm Calm - N/A   Scattered Clouds
1:55 AM 46.4 °F 44.6 °F 93% 30.07 in 10.0 mi Calm Calm - N/A   Overcast
2:15 AM 48.2 °F 44.6 °F 87% 30.06 in 10.0 mi Calm Calm - N/A   Overcast
2:35 AM 50.0 °F 46.4 °F 87% 30.06 in 10.0 mi Calm Calm - N/A   Overcast
2:55 AM 50.0 °F 46.4 °F 87% 30.07 in 10.0 mi Calm Calm - N/A   Overcast
3:35 AM 50.0 °F 46.4 °F 87% 30.06 in 10.0 mi Calm Calm - N/A   Overcast
3:55 AM 50.0 °F 46.4 °F 87% 30.04 in 10.0 mi Calm Calm - N/A   Overcast
4:15 AM 51.8 °F 46.4 °F 82% 30.05 in 10.0 mi Calm Calm - N/A   Mostly Cloudy
4:35 AM 51.8 °F 48.2 °F 88% 30.05 in 10.0 mi Calm Calm - N/A   Overcast
4:55 AM 51.8 °F 48.2 °F 88% 30.05 in 10.0 mi Calm Calm - N/A   Overcast
5:15 AM 51.8 °F 48.2 °F 88% 30.06 in 10.0 mi Calm Calm - N/A   Overcast
5:35 AM 53.6 °F 48.2 °F 82% 30.06 in 10.0 mi Calm Calm - N/A   Overcast
6:15 AM 53.6 °F 50.0 °F 88% 30.07 in 10.0 mi Calm Calm - N/A   Overcast
6:35 AM 53.6 °F 50.0 °F 88% 30.07 in 10.0 mi Calm Calm - N/A   Overcast
6:55 AM 55.4 °F 48.2 °F 77% 30.08 in 10.0 mi Calm Calm - N/A   Overcast
7:15 AM 53.6 °F 50.0 °F 88% 30.08 in 10.0 mi Calm Calm - N/A   Overcast
7:35 AM 53.6 °F 50.0 °F 88% 30.08 in 10.0 mi Calm Calm - N/A   Overcast
7:55 AM 53.6 °F 50.0 °F 88% 30.08 in 10.0 mi Calm Calm - N/A   Overcast
8:15 AM 53.6 °F 50.0 °F 88% 30.07 in 10.0 mi SSE 3.5 mph - N/A   Overcast
8:35 AM 55.4 °F 48.2 °F 77% 30.08 in 10.0 mi SE 3.5 mph - N/A   Overcast
8:55 AM 55.4 °F 48.2 °F 77% 30.08 in 10.0 mi Calm Calm - N/A   Overcast
9:15 AM 55.4 °F 50.0 °F 82% 30.09 in 10.0 mi Calm Calm - N/A   Overcast
9:35 AM 55.4 °F 50.0 °F 82% 30.09 in 10.0 mi Calm Calm - N/A   Overcast
9:55 AM 55.4 °F 48.2 °F 77% 30.09 in 10.0 mi North - - N/A   Overcast
10:15 AM 57.2 °F 50.0 °F 77% 30.09 in 10.0 mi Calm Calm - N/A   Overcast
10:35 AM 57.2 °F 50.0 °F 77% 30.09 in 10.0 mi Calm Calm - N/A   Overcast
10:55 AM 59.0 °F 50.0 °F 72% 30.08 in 10.0 mi Calm Calm - N/A   Overcast
11:15 AM 59.0 °F 48.2 °F 67% 30.08 in 10.0 mi South 3.5 mph - N/A   Overcast
11:35 AM 60.8 °F 48.2 °F 63% 30.08 in 10.0 mi Calm Calm - N/A   Overcast
11:55 AM 60.8 °F 46.4 °F 59% 30.08 in 10.0 mi SE 4.6 mph - N/A   Overcast
12:15 PM 62.6 °F 46.4 °F 55% 30.07 in 10.0 mi SSE 3.5 mph - N/A   Overcast
12:35 PM 62.6 °F 46.4 °F 55% 30.07 in 10.0 mi Calm Calm - N/A   Overcast
12:55 PM 64.4 °F 46.4 °F 52% 30.06 in 10.0 mi Calm Calm - N/A   Overcast
1:15 PM 64.4 °F 46.4 °F 52% 30.05 in 10.0 mi SE 4.6 mph - N/A   Overcast
1:35 PM 66.2 °F 46.4 °F 49% 30.04 in 10.0 mi South 4.6 mph - N/A   Overcast
1:55 PM 66.2 °F 46.4 °F 49% 30.03 in 10.0 mi SSE 4.6 mph - N/A   Mostly Cloudy
2:15 PM 68.0 °F 48.2 °F 49% 30.02 in 10.0 mi South 3.5 mph - N/A   Mostly Cloudy
2:35 PM 68.0 °F 48.2 °F 49% 30.01 in 10.0 mi South 3.5 mph - N/A   Scattered Clouds
2:55 PM 69.8 °F 48.2 °F 46% 30.00 in 10.0 mi SSE 5.8 mph - N/A   Scattered Clouds
3:15 PM 69.8 °F 48.2 °F 46% 30.00 in 10.0 mi Calm Calm - N/A   Mostly Cloudy
3:35 PM 71.6 °F 48.2 °F 43% 29.99 in 10.0 mi South 3.5 mph - N/A   Mostly Cloudy
3:55 PM 71.6 °F 48.2 °F 43% 29.99 in 10.0 mi South 5.8 mph - N/A   Scattered Clouds
4:15 PM 71.6 °F 46.4 °F 41% 29.98 in 10.0 mi South 6.9 mph - N/A   Clear
4:35 PM 71.6 °F 46.4 °F 41% 29.98 in 10.0 mi SE 5.8 mph - N/A   Clear
4:55 PM 71.6 °F 46.4 °F 41% 29.97 in 10.0 mi SSE 4.6 mph - N/A   Clear
5:15 PM 71.6 °F 48.2 °F 43% 29.97 in 10.0 mi SE 4.6 mph - N/A   Clear
5:35 PM 71.6 °F 48.2 °F 43% 29.98 in 10.0 mi SSE 4.6 mph - N/A   Clear
5:55 PM 69.8 °F 48.2 °F 46% 29.98 in 10.0 mi South 5.8 mph - N/A   Clear
6:15 PM 68.0 °F 48.2 °F 49% 29.98 in 10.0 mi SE 4.6 mph - N/A   Clear
6:35 PM 66.2 °F 48.2 °F 52% 29.99 in 7.0 mi SE 4.6 mph - N/A   Haze
6:55 PM 64.4 °F 50.0 °F 59% 29.99 in 10.0 mi Calm Calm - N/A   Clear
7:15 PM 60.8 °F 50.0 °F 68% 30.00 in 10.0 mi Calm Calm - N/A   Clear
7:35 PM 59.0 °F 51.8 °F 77% 30.00 in 10.0 mi Calm Calm - N/A   Clear
7:55 PM 57.2 °F 51.8 °F 82% 30.01 in 10.0 mi Calm Calm - N/A   Clear
8:15 PM 57.2 °F 51.8 °F 82% 30.01 in 10.0 mi Calm Calm - N/A   Clear
8:35 PM 55.4 °F 51.8 °F 88% 30.01 in 10.0 mi Calm Calm - N/A   Clear
8:55 PM 55.4 °F 51.8 °F 88% 30.02 in 10.0 mi Calm Calm - N/A   Clear
9:15 PM 55.4 °F 51.8 °F 88% 30.03 in 10.0 mi Calm Calm - N/A   Clear
9:35 PM 53.6 °F 51.8 °F 94% 30.02 in 10.0 mi Calm Calm - N/A   Clear
9:55 PM 53.6 °F 51.8 °F 94% 30.03 in 10.0 mi Calm Calm - N/A   Clear
10:15 PM 53.6 °F 51.8 °F 94% 30.03 in 10.0 mi Calm Calm - N/A   Clear
10:35 PM 53.6 °F 51.8 °F 94% 30.04 in 10.0 mi Calm Calm - N/A   Clear
10:55 PM 53.6 °F 51.8 °F 94% 30.04 in 10.0 mi Calm Calm - N/A   Clear
11:15 PM 53.6 °F 51.8 °F 94% 30.04 in 10.0 mi Calm Calm - N/A   Clear
11:35 PM 53.6 °F 51.8 °F 94% 30.04 in 10.0 mi Calm Calm - N/A   Clear
11:55 PM 53.6 °F 51.8 °F 94% 30.03 in 10.0 mi Calm Calm - N/A   Clear